Regional Weather Roundup
Issued by NWS

Home | Current Version | Previous Version | Text Only | Print | Product List | Glossary On
Versions: 1 2 3 4 5 6 7 8 9 10 11 12 13 14 15 16 17 18 19 20 21 22 23 24 25 26 27 28 29 30 31 32 33 34 35 36 37 38 39 40 41 42 43 44 45 46 47 48 49 50
000
ASUS43 KLMK 071110
RWRKY
KENTUCKY REGIONAL WEATHER ROUNDUP
NATIONAL WEATHER SERVICE LOUISVILLE KY
600 AM EST WED DEC 07 2016

NOTE "FAIR" INDICATES FEW OR NO CLOUDS BELOW 12,000 FEET
WITH NO SIGNIFICANT WEATHER AND/OR OBSTRUCTIONS TO VISIBILITY.

KYZ001>023-026-027-061>063-070>075-071200-
WESTERN AND SOUTH CENTRAL KENTUCKY

CITY           SKY/WX    TMP DP  RH WIND       PRES   REMARKS
PADUCAH        PTCLDY    33  25  72 N6        30.16R WCI  28
HENDERSON      CLOUDY    34  25  69 NW5       30.16R WCI  30
OWENSBORO      MOCLDY    35  29  78 N5        30.16R WCI  31
HOPKINSVILLE   PTCLDY    33  33  99 N3        30.13F FOG
BOWLING GREEN  CLOUDY    34  32  92 CALM      30.15R FOG
GLASGOW        CLOUDY   N/A N/A N/A CALM      30.14R HAZE
$$

KYZ024-025-028>034-038-045-046-053-071200-
NORTH CENTRAL KENTUCKY

CITY           SKY/WX    TMP DP  RH WIND       PRES   REMARKS
LOUISVILLE/SDF CLOUDY    36  27  69 NW6       30.14R WCI  31
LOUISVILLE/LOU MOCLDY    36  27  69 NW6       30.14R WCI  31
FORT KNOX      CLOUDY    32  30  92 CALM      30.11S
$$

KYZ035>037-039>044-047>052-055>060-089>105-071200-
NORTHEAST KENTUCKY

CITY           SKY/WX    TMP DP  RH WIND       PRES   REMARKS
LEXINGTON      PTCLDY    33  29  85 CALM      30.11R
COVINGTON      MOCLDY    31  24  75 NW8       30.10S WCI  23
FRANKFORT      PTCLDY    34  28  79 CALM      30.11R
$$

KYZ054-064>069-076>088-106>120-071200-
SOUTHEAST KENTUCKY

CITY           SKY/WX    TMP DP  RH WIND       PRES   REMARKS
JACKSON        PTCLDY    35  30  82 CALM      30.08R
LONDON         CLOUDY    37  32  82 N5        30.08F WCI  33
SOMERSET       PTCLDY    34  32  93 N5        30.13R WCI  30
MIDDLESBORO    MOCLDY    40  36  85 NE3       30.07F
MONTICELLO     PTSUNNY   35  34  96 N16       30.12R WCI  25
$$





USA.gov is the U.S. government's official web portal to all federal, state and local government web resources and services.